Weather History for KOZR - October, 2013

Change the Weather History Date:

Thursday, October 31, 2013

  Actual Average Record
Temperature  
Mean Temperature 70 °F -  
Max Temperature 81 °F 73 °F 89 °F (1998)
Min Temperature 58 °F 50 °F 41 °F (2001)
Cooling Degree Days 4    
Growing Degree Days 20 (Base 50)    
Moisture  
Dew Point 65 °F    
Average Humidity 82    
Maximum Humidity 100    
Minimum Humidity 52    
Precipitation  
Precipitation 0.07 in - - ()
Sea Level Pressure  
Sea Level Pressure 30.00 in    
Wind  
Wind Speed 8 mph (SSE)    
Max Wind Speed 20 mph    
Max Gust Speed 25 mph    
Visibility 9 miles    
Events Rain    
Averages and records for this station are not official NWS values.
T = Trace of Precipitation, MM = Missing Value Source: NWS Daily Summary

Daily Weather History Graph

Daily Weather History Graph

Search for Another Location

Airport or City:

Trip Planner

Search our weather history database for the weather conditions in past years. The results will help you decide how hot, cold, wet, or windy it might be!

Date:

Astronomy

Oct. 31, 2013 Rise Set
Actual Time 6:57 AM CDT 5:54 PM CDT
Civil Twilight 6:32 AM CDT 6:19 PM CDT
Nautical Twilight 6:04 AM CDT 6:48 PM CDT
Astronomical Twilight 5:35 AM CDT 7:16 PM CDT
Moon 3:57 AM CDT (10/31) 4:03 PM CDT (10/31)
Length of Visible Light 11h 46m
Length of Day
10h 56m
Waning Crescent, 10% of the Moon is Illuminated
Oct 31
Waning Crescent
Nov 3
New
Nov 9
First Quarter
Nov 17
Full
Nov 25
Last Quarter

Hourly Weather History & Observations

Time (CDT) Temp. Heat Index Dew Point Humidity Pressure Visibility Wind Dir Wind Speed Gust Speed Precip Events Conditions
12:58 AM 58.6 °F - 55.2 °F 88% 30.13 in 10.0 mi East 5.8 mph - N/A   Clear
1:58 AM 59.0 °F - 54.3 °F 84% 30.12 in 10.0 mi NNE 2.3 mph - N/A   Clear
2:58 AM 58.5 °F - 54.9 °F 88% 30.12 in 10.0 mi East 3.5 mph - N/A   Scattered Clouds
3:58 AM 62.8 °F - 58.3 °F 85% 30.08 in 10.0 mi SE 5.8 mph - N/A   Scattered Clouds
4:58 AM 64.2 °F - 60.6 °F 88% 30.09 in 10.0 mi ESE 6.9 mph - N/A   Mostly Cloudy
5:58 AM 64.0 °F - 61.0 °F 90% 30.08 in 10.0 mi SE 8.1 mph - N/A   Clear
6:58 AM 63.5 °F - 61.2 °F 92% 30.09 in 10.0 mi SE 8.1 mph - N/A   Clear
7:53 AM 64.4 °F - 62.6 °F 94% 30.07 in 10.0 mi SE 8.1 mph - N/A   Mostly Cloudy
7:58 AM 65.3 °F - 63.0 °F 92% 30.09 in 10.0 mi SE 8.1 mph - N/A   Mostly Cloudy
8:58 AM 68.2 °F - 64.6 °F 88% 30.07 in 10.0 mi SSE 10.4 mph - N/A   Mostly Cloudy
9:03 AM 68.0 °F - 64.4 °F 88% 30.08 in 10.0 mi SSE 6.9 mph - N/A   Scattered Clouds
9:58 AM 73.4 °F - 66.6 °F 79% 30.07 in 10.0 mi SSE 13.8 mph 21.9 mph N/A   Clear
10:58 AM 77.2 °F - 67.3 °F 71% 30.07 in 10.0 mi South 13.8 mph 23.0 mph N/A   Scattered Clouds
11:08 AM 77.0 °F - 68.0 °F 74% 30.07 in 10.0 mi South 12.7 mph 17.3 mph N/A   Mostly Cloudy
11:18 AM 77.0 °F - 68.0 °F 74% 30.06 in 10.0 mi SSE 12.7 mph - N/A   Overcast
11:58 AM 77.9 °F - 66.2 °F 67% 30.04 in 10.0 mi South 12.7 mph - N/A   Mostly Cloudy
12:58 PM 77.4 °F - 65.7 °F 67% 30.01 in 10.0 mi SSE 9.2 mph - N/A   Overcast
1:58 PM 79.0 °F - 65.7 °F 64% 29.99 in 10.0 mi SSE 13.8 mph 21.9 mph N/A   Mostly Cloudy
2:58 PM 81.0 °F 81.9 °F 61.9 °F 52% 29.95 in 10.0 mi South 19.6 mph 25.3 mph N/A   Scattered Clouds
3:58 PM 79.0 °F - 61.3 °F 55% 29.93 in 10.0 mi SSE 13.8 mph - N/A   Mostly Cloudy
4:58 PM 77.7 °F - 61.2 °F 57% 29.93 in 10.0 mi South 11.5 mph - N/A   Clear
5:58 PM 75.0 °F - 61.9 °F 64% 29.92 in 10.0 mi SSE 8.1 mph - N/A   Mostly Cloudy
6:58 PM 74.1 °F - 65.3 °F 74% 29.94 in 10.0 mi SSE 5.8 mph - N/A   Overcast
7:33 PM 73.4 °F - 66.2 °F 78% 29.93 in 10.0 mi SSE 9.2 mph - N/A   Mostly Cloudy
7:38 PM 73.4 °F - 66.2 °F 78% 29.93 in 10.0 mi SSE 8.1 mph - N/A   Mostly Cloudy
7:58 PM 73.8 °F - 66.6 °F 78% 29.94 in 10.0 mi SSE 8.1 mph - N/A   Mostly Cloudy
8:18 PM 73.4 °F - 66.2 °F 78% 29.93 in 10.0 mi SSE 9.2 mph - N/A Rain Light Rain
8:28 PM 73.4 °F - 66.2 °F 78% 29.93 in 10.0 mi SSE 6.9 mph - N/A   Mostly Cloudy
8:38 PM 73.4 °F - 66.2 °F 78% 29.93 in 10.0 mi SSE 9.2 mph - N/A   Light Drizzle
8:48 PM 71.6 °F - 68.0 °F 88% 29.95 in 6.0 mi SW 10.4 mph - N/A Rain Light Rain
8:53 PM 71.6 °F - 68.0 °F 88% 29.94 in 2.5 mi SSW 9.2 mph - N/A Rain Rain
8:58 PM 71.2 °F - 68.2 °F 90% 29.94 in 2.0 mi South 10.4 mph - 0.03 in Rain Light Rain
9:03 PM 69.8 °F - 68.0 °F 94% 29.94 in 3.0 mi South 8.1 mph - N/A Rain Light Rain
9:09 PM 69.8 °F - 68.0 °F 94% 29.94 in 10.0 mi SSE 5.8 mph - N/A   Overcast
9:38 PM 69.8 °F - 68.0 °F 94% 29.95 in 8.0 mi SSW 6.9 mph - N/A   Light Drizzle
9:51 PM 69.8 °F - 69.8 °F 100% 29.95 in 10.0 mi South 8.1 mph - N/A   Mostly Cloudy
9:58 PM 70.5 °F - 69.1 °F 95% 29.95 in 10.0 mi South 8.1 mph - 0.04 in   Scattered Clouds
10:58 PM 70.5 °F - 69.3 °F 96% 29.93 in 10.0 mi SSE 9.2 mph - N/A   Mostly Cloudy
11:58 PM 69.8 °F - 69.8 °F 100% 29.92 in 10.0 mi South 6.9 mph - N/A   Mostly Cloudy